EW4036 Weather Reports


Display with metric or nautical units.
time (UTC)temp
F
wind
direction
speed
MPH
gust
MPH
rain 1hr
in
rain 24hr
in
rain mn
in
humidity
%
barometer
mb
20260902100008 64 219 16.0 22.0 0.00 0.00 0.00 67 1008.0
20260902094605 64 227 16.0 24.0 0.00 0.00 0.00 70 1008.1
20260902093104 64 242 12.0 19.0 0.00 0.00 0.00 72 1008.1
20260902091505 64 225 13.0 22.0 0.00 0.00 0.00 71 1008.1
20260902090009 63 220 15.0 21.0 0.00 0.00 0.00 74 1008.1
20260902084504 63 232 14.0 21.0 0.00 0.00 0.00 78 1008.0
20260902083004 63 204 10.0 17.0 0.00 0.00 0.00 85 1007.9
20260902081513 62 209 11.0 16.0 0.00 0.00 0.00 87 1007.9
20260902074504 60 215 7.0 14.0 0.00 0.00 0.00 90 1008.1
20260902073004 59 192 11.0 17.0 0.00 0.00 0.00 92 1008.1
20260902071605 58 213 8.0 13.0 0.00 0.00 0.00 93 1008.1
20260902070009 57 194 5.0 9.0 0.00 0.00 0.00 94 1008.1
20260902063009 56 180 7.0 10.0 0.00 0.00 0.00 94 1008.2
20260902061507 55 202 6.0 9.0 0.00 0.00 0.00 94 1008.3
20260902060016 55 183 7.0 11.0 0.00 0.00 0.00 94 1008.2
20260902054511 55 190 7.0 13.0 0.00 0.00 0.00 94 1008.1
20260902053005 55 177 7.0 13.0 0.00 0.00 0.00 94 1008.1
20260902051603 55 206 7.0 14.0 0.00 0.00 0.00 94 1008.2
20260902050011 55 167 7.0 13.0 0.00 0.00 0.00 94 1008.2
20260902044504 54 195 8.0 13.0 0.00 0.01 0.00 95 1008.2
20260902043004 53 194 9.0 13.0 0.00 0.01 0.00 95 1008.3
20260902041508 53 179 6.0 10.0 0.00 0.01 0.00 95 1008.3
20260902040010 53 211 6.0 9.0 0.00 0.01 0.00 95 1008.5
20260902034504 53 207 5.0 10.0 0.00 0.10 0.00 95 1008.5
20260902033006 53 217 7.0 11.0 0.00 0.10 0.00 95 1008.5
20260902031603 53 192 5.0 8.0 0.00 0.10 0.00 95 1008.5
20260902030003 53 207 5.0 9.0 0.00 0.10 0.00 95 1008.5
20260902024506 53 198 6.0 9.0 0.00 0.10 0.00 95 1008.6
20260902023008 53 187 7.0 12.0 0.00 0.10 0.00 95 1008.6
20260902021506 53 191 4.0 9.0 0.00 0.10 0.00 94 1008.6
20260902020003 53 193 6.0 10.0 0.00 0.10 0.00 94 1008.5
20260902014504 53 205 6.0 11.0 0.00 0.10 0.00 94 1008.5
20260902013006 54 198 5.0 10.0 0.00 0.10 0.00 94 1008.5
20260902011503 54 196 5.0 9.0 0.00 0.10 0.00 93 1008.6
20260902010008 54 194 7.0 11.0 0.00 0.10 0.00 93 1008.5
20260902004605 55 205 7.0 11.0 0.00 0.10 0.00 93 1008.5
20260902003104 55 227 6.0 12.0 0.00 0.10 0.00 93 1008.5
20260902001503 56 228 8.0 12.0 0.00 0.10 0.00 93 1008.5
20260902000007 56 208 8.0 16.0 0.00 0.10 0.00 93 1008.5
20260901234617 56 228 8.0 11.0 0.00 0.10 0.00 94 1008.5
20260901233004 56 217 6.0 10.0 0.00 0.10 0.00 95 1008.6
20260901231510 55 190 6.0 9.0 0.00 0.10 0.00 95 1008.6
20260901230007 55 213 5.0 0.0 0.00 0.00 0.00 95 1008.6
20260901224603 54 217 4.0 9.0 0.00 0.10 0.00 95 1008.5
20260901223006 55 216 4.0 8.0 0.00 0.10 0.00 94 1008.6
20260901221514 55 201 3.0 9.0 0.00 0.10 0.00 93 1008.6
20260901220002 55 211 4.0 13.0 0.00 0.10 0.00 93 1008.6
20260901214604 55 217 6.0 10.0 0.00 0.10 0.10 93 1008.6
20260901213102 55 200 2.0 7.0 0.00 0.10 0.10 92 1008.6
20260901211506 55 208 4.0 6.0 0.00 0.10 0.10 91 1008.5
20260901210007 56 177 3.0 6.0 0.00 0.10 0.10 90 1008.7
20260901204504 56 220 4.0 7.0 0.00 0.10 0.10 89 1008.6
20260901203010 57 213 2.0 7.0 0.00 0.10 0.10 87 1008.6
20260901201612 57 222 4.0 10.0 0.00 0.10 0.10 87 1008.6
20260901200108 58 225 6.0 14.0 0.00 0.10 0.10 85 1008.7
20260901194608 59 219 7.0 12.0 0.00 0.10 0.10 85 1008.6
20260901193005 59 211 6.0 9.0 0.00 0.10 0.10 84 1008.6
20260901191603 59 224 5.0 10.0 0.00 0.10 0.10 84 1008.5
20260901190112 60 210 4.0 6.0 0.00 0.10 0.10 84 1008.5
20260901184503 61 221 3.0 8.0 0.00 0.10 0.10 82 1008.4
20260901183020 61 238 5.0 11.0 0.00 0.10 0.10 82 1008.3
20260901181505 62 231 5.0 10.0 0.00 0.10 0.10 83 1008.2
20260901180003 63 229 4.0 9.0 0.00 0.10 0.10 82 1008.0
20260901174506 63 136 0.0 1.0 0.00 0.10 0.10 81 1007.8
20260901173003 64 238 0.0 1.0 0.00 0.10 0.10 77 1007.7
20260901171504 65 280 0.0 1.0 0.00 0.10 0.10 74 1007.7
20260901170006 66 280 1.0 3.0 0.00 0.10 0.10 73 1007.7
20260901164502 66 297 2.0 5.0 0.00 0.10 0.10 72 1007.7
20260901163005 66 299 3.0 5.0 0.00 0.10 0.10 73 1007.6
20260901161607 66 274 4.0 6.0 0.00 0.10 0.10 73 1007.7
20260901160006 67 260 4.0 7.0 0.00 0.10 0.10 73 1007.6
20260901154502 67 303 4.0 7.0 0.00 0.10 0.10 73 1007.6
20260901153005 67 271 4.0 8.0 0.00 0.10 0.10 74 1007.6
20260901151605 67 259 5.0 8.0 0.00 0.10 0.10 73 1007.7
20260901150004 67 289 3.0 8.0 0.00 0.10 0.10 73 1007.7
20260901144507 67 295 4.0 8.0 0.00 0.10 0.10 74 1007.7
20260901143007 66 271 5.0 8.0 0.00 0.10 0.10 76 1007.7
20260901141504 66 271 5.0 8.0 0.00 0.10 0.10 76 1007.8
20260901140006 66 256 5.0 8.0 0.00 0.10 0.10 75 1007.8
20260901134604 67 271 8.0 12.0 0.00 0.10 0.10 73 1007.8
20260901133104 66 297 5.0 10.0 0.00 0.10 0.10 75 1007.8
20260901131507 66 313 5.0 8.0 0.00 0.10 0.10 75 1007.8
20260901130007 67 304 4.0 9.0 0.00 0.10 0.10 75 1007.8
20260901124506 67 324 3.0 7.0 0.00 0.10 0.10 73 1007.8
20260901123009 67 338 4.0 8.0 0.00 0.10 0.10 76 1007.6
20260901121503 66 292 3.0 8.0 0.00 0.10 0.10 77 1007.7
20260901120003 66 280 3.0 9.0 0.00 0.10 0.10 79 1007.8
20260901114504 66 292 4.0 9.0 0.00 0.10 0.10 79 1007.8
20260901113005 65 289 7.0 12.0 0.00 0.10 0.10 80 1007.8
20260901111503 65 263 4.0 7.0 0.00 0.10 0.10 81 1007.7
20260901110007 64 244 4.0 9.0 0.00 0.10 0.10 84 1007.7
20260901104504 64 293 6.0 9.0 0.00 0.10 0.10 85 1007.7
20260901103006 65 291 2.0 8.0 0.00 0.10 0.10 85 1007.5